N5DUP Weather Reports


Display with metric or nautical units.
time (UTC)temp
F
wind
direction
speed
MPH
gust
MPH
rain 1hr
in
rain 24hr
in
rain mn
in
humidity
%
barometer
mb
20260509033355 71 185 5.0 12.0 0.00 0.00 0.00 77 1008.6
20260509031850 72 204 5.0 12.0 0.00 0.00 0.00 75 1008.6
20260509030318 72 206 4.0 8.0 0.00 0.00 0.00 72 1008.6
20260509024829 73 184 4.0 8.0 0.00 0.00 0.00 70 1008.3
20260509023327 73 198 4.0 10.0 0.00 0.00 0.00 69 1008.3
20260509021822 74 198 3.0 4.0 0.00 0.00 0.00 67 1008.3
20260509020315 74 164 4.0 6.0 0.00 0.00 0.00 66 1008.1
20260509014827 75 192 3.0 6.0 0.00 0.00 0.00 65 1007.8
20260509013321 76 198 2.0 4.0 0.00 0.00 0.00 64 1007.8
20260509011831 76 182 2.0 4.0 0.00 0.00 0.00 62 1007.7
20260509010327 77 178 2.0 5.0 0.00 0.00 0.00 60 1007.7
20260509004820 77 189 2.0 4.0 0.00 0.00 0.00 59 1007.6
20260509003329 78 201 3.0 6.0 0.00 0.00 0.00 58 1007.4
20260509001830 79 200 2.0 6.0 0.00 0.00 0.00 56 1007.4
20260509000327 79 185 2.0 6.0 0.00 0.00 0.00 55 1007.4
20260508234842 80 217 3.0 7.0 0.00 0.00 0.00 54 1007.4
20260508233319 80 194 3.0 11.0 0.00 0.00 0.00 54 1007.3
20260508231829 80 180 5.0 8.0 0.00 0.00 0.00 55 1007.3
20260508230322 80 210 2.0 8.0 0.00 0.00 0.00 55 1007.4
20260508224816 80 216 5.0 9.0 0.00 0.00 0.00 53 1007.1
20260508223333 80 205 5.0 8.0 0.00 0.00 0.00 55 1007.0
20260508221827 79 198 4.0 7.0 0.00 0.00 0.00 56 1007.1
20260508220320 78 227 5.0 8.0 0.00 0.00 0.00 56 1007.3
20260508214831 79 214 5.0 9.0 0.00 0.00 0.00 55 1007.5
20260508213323 78 189 5.0 8.0 0.00 0.00 0.00 55 1007.8
20260508211900 78 217 4.0 9.0 0.00 0.00 0.00 55 1008.1
20260508210332 79 229 4.0 12.0 0.00 0.00 0.00 54 1008.1
20260508204822 79 226 5.0 10.0 0.00 0.00 0.00 54 1008.2
20260508203315 80 204 5.0 9.0 0.00 0.00 0.00 54 1008.3
20260508201829 80 217 4.0 9.0 0.00 0.00 0.00 54 1008.6
20260508200325 80 223 6.0 12.0 0.00 0.00 0.00 53 1008.7
20260508194833 80 233 3.0 11.0 0.00 0.00 0.00 54 1008.9
20260508193327 80 208 5.0 9.0 0.00 0.00 0.00 55 1009.1
20260508191840 80 178 5.0 10.0 0.00 0.00 0.00 54 1009.4
20260508190329 79 205 4.0 8.0 0.00 0.00 0.00 57 1009.6
20260508184821 77 221 7.0 10.0 0.00 0.00 0.00 58 1009.8
20260508183338 78 198 6.0 9.0 0.00 0.00 0.00 57 1009.9
20260508181824 78 191 5.0 9.0 0.00 0.00 0.00 57 1010.0
20260508180317 77 213 5.0 10.0 0.00 0.00 0.00 59 1010.3
20260508174829 76 217 3.0 6.0 0.00 0.00 0.00 59 1010.6
20260508173321 75 180 3.0 7.0 0.00 0.00 0.00 62 1010.9
20260508171819 73 241 1.0 4.0 0.00 0.00 0.00 64 1011.2
20260508170330 71 239 3.0 5.0 0.00 0.00 0.00 66 1011.4
20260508164824 70 253 3.0 7.0 0.00 0.00 0.00 68 1011.7
20260508163334 68 186 1.0 6.0 0.00 0.00 0.00 69 1012.3
20260508161828 67 203 4.0 9.0 0.00 0.00 0.00 72 1012.5
20260508160320 66 207 4.0 9.0 0.00 0.00 0.00 71 1012.5
20260508154830 66 193 5.0 12.0 0.00 0.00 0.00 71 1012.7
20260508153342 65 188 5.0 9.0 0.00 0.00 0.00 71 1012.8
20260508151854 64 213 5.0 13.0 0.00 0.00 0.00 71 1012.8
20260508150319 64 236 5.0 10.0 0.00 0.00 0.00 72 1012.8
20260508144828 63 186 3.0 12.0 0.00 0.00 0.00 73 1013.0
20260508143321 62 191 4.0 8.0 0.00 0.00 0.00 73 1012.9
20260508141815 61 190 3.0 7.0 0.00 0.00 0.00 74 1012.9
20260508140326 60 192 3.0 10.0 0.00 0.00 0.00 74 1013.0
20260508134819 60 189 4.0 9.0 0.00 0.00 0.00 74 1013.2
20260508133329 59 186 5.0 11.0 0.00 0.00 0.00 75 1013.3
20260508131823 59 192 5.0 10.0 0.00 0.00 0.00 75 1013.4
20260508130315 59 173 6.0 9.0 0.00 0.00 0.00 75 1013.4
20260508124827 59 196 4.0 10.0 0.00 0.00 0.00 75 1013.4
20260508123322 59 202 4.0 9.0 0.00 0.00 0.00 75 1013.6
20260508121816 59 192 3.0 8.0 0.00 0.00 0.00 76 1013.3
20260508120355 59 186 3.0 7.0 0.00 0.00 0.00 76 1013.3
20260508114825 59 198 2.0 9.0 0.00 0.00 0.00 76 1013.2
20260508113320 59 163 2.0 7.0 0.00 0.00 0.00 75 1013.2
20260508111815 59 211 4.0 11.0 0.00 0.00 0.00 75 1013.1
20260508110319 59 179 4.0 9.0 0.00 0.00 0.00 75 1013.2
20260508104814 59 194 3.0 7.0 0.00 0.00 0.00 74 1013.3
20260508103346 59 186 2.0 5.0 0.00 0.00 0.00 74 1013.3
20260508101838 58 189 2.0 5.0 0.00 0.00 0.00 74 1013.0
20260508100332 58 193 2.0 5.0 0.00 0.00 0.00 74 1013.2
20260508094820 59 194 1.0 4.0 0.00 0.00 0.00 74 1013.5
20260508093318 59 200 0.0 2.0 0.00 0.00 0.00 74 1013.7
20260508091826 59 200 0.0 3.0 0.00 0.00 0.00 75 1013.7
20260508090322 58 202 0.0 0.0 0.00 0.00 0.00 75 1013.8
20260508084854 58 202 0.0 0.0 0.00 0.00 0.00 76 1013.7
20260508083326 58 202 0.0 0.0 0.00 0.00 0.00 76 1013.8
20260508081818 58 202 0.0 0.0 0.00 0.00 0.00 76 1013.9
20260508080333 58 202 0.0 0.0 0.00 0.00 0.00 76 1013.9
20260508074829 58 202 0.0 0.0 0.00 0.00 0.00 76 1013.8
20260508073321 58 202 0.0 1.0 0.00 0.00 0.00 75 1013.5
20260508071832 58 201 2.0 5.0 0.00 0.00 0.00 74 1013.5
20260508070322 58 189 3.0 9.0 0.00 0.00 0.00 75 1013.5
20260508064851 58 211 3.0 9.0 0.00 0.00 0.00 75 1013.6
20260508063343 58 204 4.0 8.0 0.00 0.00 0.00 75 1013.6
20260508061816 59 190 3.0 8.0 0.00 0.00 0.00 74 1013.7
20260508060333 59 188 2.0 5.0 0.00 0.00 0.00 73 1014.0
20260508054841 59 192 2.0 4.0 0.00 0.00 0.00 73 1014.4
20260508053315 59 190 2.0 4.0 0.00 0.00 0.00 73 1014.9
20260508051828 59 184 0.0 6.0 0.00 0.00 0.00 73 1014.7
20260508050320 59 188 2.0 6.0 0.00 0.00 0.00 73 1014.7
20260508044827 59 189 2.0 4.0 0.00 0.00 0.00 72 1014.8
20260508043338 60 189 2.0 4.0 0.00 0.00 0.00 71 1014.9
20260508041828 60 192 3.0 5.0 0.00 0.00 0.00 70 1014.9
20260508040322 60 184 4.0 8.0 0.00 0.00 0.00 70 1015.0
20260508034901 60 202 4.0 8.0 0.00 0.00 0.00 70 1015.2